This demonstration page uses our WeatherBlox Daily Observations layout. Learn more.

Left ArrowRight Arrow

39.01783, -85.05884

Hourly Observations for June 13, 2015

Temp ( °F °C ) Dew Point ( °F °C ) Humidity (%) Winds ( mph kmh ) Pressure ( in mb ) Visibility ( mi km ) Precip ( " mm )
12:52 am 00:52 Partly Cloudy 69 20.6 67 19.4 93 93 S 7 11 29.98 1015 10 16 N/A
1:52 am 01:52 Cloudy 70 21.1 68 20 93 93 S 5 7 29.97 1015 10 16 N/A
2:52 am 02:52 Partly Cloudy 71 21.7 68 20 90 90 S 9 15 29.95 1014 10 16 N/A
3:52 am 03:52 Partly Cloudy 71 21.7 69 20.6 94 94 SSW 7 11 29.96 1014 10 16 N/A
4:52 am 04:52 Mostly Cloudy 72 22.2 69 20.6 91 91 SSW 7 11 29.96 1015 7 11 N/A
5:52 am 05:52 Mostly Cloudy 72 22.2 70 21.1 94 94 SSW 7 11 29.98 1015 10 16 N/A
6:52 am 06:52 Partly Cloudy 72 22.2 70 21.1 94 94 SSW 6 9 30.00 1016 10 16 N/A
7:52 am 07:52 Mostly Sunny 74 23.3 71 21.7 91 91 SSW 5 7 30.01 1016 7 11 N/A
8:52 am 08:52 Cloudy 76 24.4 71 21.7 85 85 SSW 9 15 30.03 1017 9 14 N/A
9:52 am 09:52 Partly Cloudy 79 26.1 72 22.2 79 79 SW 9 15 30.04 1017 10 16 N/A
10:52 am 10:52 Partly Cloudy 81 27.2 72 22.2 74 74 SW 9 15 30.05 1018 10 16 N/A
11:27 am 11:27 Mostly Cloudy 81 27 72 22 74 74 WSW 8 13 30.06 1018 10 16 N/A
11:52 am 11:52 Mostly Cloudy 84 28.9 73 22.8 70 70 SSW 9 15 30.05 1018 10 16 N/A
12:52 pm 12:52 Mostly Cloudy 85 29.4 71 21.7 63 63 WSW 8 13 30.05 1018 10 16 N/A
1:52 pm 13:52 Mostly Cloudy 88 31.1 72 22.2 59 59 SW 8 13 30.02 1017 10 16 N/A
2:52 pm 14:52 Mostly Cloudy 87 30.6 71 21.7 59 59 SSW 12 19 30.00 1016 10 16 N/A
3:52 pm 15:52 Mostly Cloudy 89 31.7 70 21.1 53 53 SSW 13 20 29.98 1015 10 16 N/A
5:52 pm 17:52 Mostly Cloudy 88 31.1 69 20.6 54 54 SW 9 15 29.98 1015 10 16 N/A
6:52 pm 18:52 Partly Cloudy 87 30.6 68 20 53 53 SW 12 19 29.97 1015 10 16 N/A
7:52 pm 19:52 Partly Cloudy 85 29.4 68 20 57 57 SW 8 13 29.97 1015 10 16 N/A
8:52 pm 20:52 Partly Cloudy 82 27.8 69 20.6 65 65 SW 3 6 29.98 1015 10 16 N/A
9:52 pm 21:52 Mostly Cloudy 81 27.2 69 20.6 67 67 S 8 13 30.01 1016 10 16 N/A
10:52 pm 22:52 Cloudy 80 26.7 70 21.1 71 71 SSW 8 13 30.04 1017 10 16 N/A
11:52 pm 23:52 Mostly Cloudy 78 25.6 70 21.1 76 76 SSW 7 11 30.04 1017 10 16 N/A

Powered by AerisWeather